Year,Month,Day,Hour,Minute,Value (Times are PST for temperature in C)
2013,04,13,00,00,1.90
2013,04,13,00,01,1.90
2013,04,13,00,02,1.90
2013,04,13,00,03,1.90
2013,04,13,00,04,1.90
2013,04,13,00,05,1.90
2013,04,13,00,06,1.90
2013,04,13,00,07,1.80
2013,04,13,00,08,1.80
2013,04,13,00,09,1.80
2013,04,13,00,10,1.80
2013,04,13,00,11,1.80
2013,04,13,00,12,1.80
2013,04,13,00,13,1.80
2013,04,13,00,14,1.80
2013,04,13,00,15,1.80
2013,04,13,00,16,1.80
2013,04,13,00,17,1.80
2013,04,13,00,18,1.80
2013,04,13,00,19,1.80
2013,04,13,00,20,1.80
2013,04,13,00,21,1.80
2013,04,13,00,22,1.80
2013,04,13,00,23,1.80
2013,04,13,00,24,1.80
2013,04,13,00,25,1.80
2013,04,13,00,26,1.80
2013,04,13,00,27,1.80
2013,04,13,00,28,1.80
2013,04,13,00,29,1.80
2013,04,13,00,30,1.80
2013,04,13,00,31,1.80
2013,04,13,00,32,1.80
2013,04,13,00,33,1.80
2013,04,13,00,34,1.80
2013,04,13,00,35,1.80
2013,04,13,00,36,1.80
2013,04,13,00,37,1.80
2013,04,13,00,38,1.80
2013,04,13,00,39,1.80
2013,04,13,00,40,1.80
2013,04,13,00,41,1.80
2013,04,13,00,42,1.80
2013,04,13,00,43,1.80
2013,04,13,00,44,1.80
2013,04,13,00,45,1.80
2013,04,13,00,46,1.80
2013,04,13,00,47,1.80
2013,04,13,00,48,1.80
2013,04,13,00,49,1.80
2013,04,13,00,50,1.80
2013,04,13,00,51,1.80
2013,04,13,00,52,1.80
2013,04,13,00,53,1.80
2013,04,13,00,54,1.80
2013,04,13,00,55,1.80
2013,04,13,00,56,1.80
2013,04,13,00,57,1.80
2013,04,13,00,58,1.80
2013,04,13,00,59,1.80
2013,04,13,01,00,1.80
2013,04,13,01,01,1.80
2013,04,13,01,02,1.80
2013,04,13,01,03,1.90
2013,04,13,01,04,1.90
2013,04,13,01,05,1.90
2013,04,13,01,06,1.90
2013,04,13,01,07,1.90
2013,04,13,01,08,1.90
2013,04,13,01,09,1.90
2013,04,13,01,10,1.90
2013,04,13,01,11,1.90
2013,04,13,01,12,1.90
2013,04,13,01,13,1.90
2013,04,13,01,14,1.90
2013,04,13,01,15,1.90
2013,04,13,01,16,2.00
2013,04,13,01,17,2.00
2013,04,13,01,18,2.00
2013,04,13,01,19,2.00
2013,04,13,01,20,2.00
2013,04,13,01,21,2.10
2013,04,13,01,22,2.10
2013,04,13,01,23,2.10
2013,04,13,01,24,2.10
2013,04,13,01,25,2.10
2013,04,13,01,26,2.10
2013,04,13,01,27,2.10
2013,04,13,01,28,2.10
2013,04,13,01,29,2.10
2013,04,13,01,30,2.10
2013,04,13,01,31,2.10
2013,04,13,01,32,2.10
2013,04,13,01,33,2.10
2013,04,13,01,34,2.10
2013,04,13,01,35,2.10
2013,04,13,01,36,2.10
2013,04,13,01,37,2.10
2013,04,13,01,38,2.10
2013,04,13,01,39,2.10
2013,04,13,01,40,2.10
2013,04,13,01,41,2.10
2013,04,13,01,42,2.10
2013,04,13,01,43,2.10
2013,04,13,01,44,2.10
2013,04,13,01,45,2.10
2013,04,13,01,46,2.10
2013,04,13,01,47,2.10
2013,04,13,01,48,2.10
2013,04,13,01,49,2.10
2013,04,13,01,50,2.10
2013,04,13,01,51,2.10
2013,04,13,01,52,2.10
2013,04,13,01,53,2.20
2013,04,13,01,54,2.20
2013,04,13,01,55,2.20
2013,04,13,01,56,2.20
2013,04,13,01,57,2.20
2013,04,13,01,58,2.20
2013,04,13,01,59,2.20
2013,04,13,02,00,2.20
2013,04,13,02,01,2.20
2013,04,13,02,02,2.30
2013,04,13,02,03,2.30
2013,04,13,02,04,2.30
2013,04,13,02,05,2.30
2013,04,13,02,06,2.30
2013,04,13,02,07,2.30
2013,04,13,02,08,2.30
2013,04,13,02,09,2.30
2013,04,13,02,10,2.30
2013,04,13,02,11,2.30
2013,04,13,02,12,2.20
2013,04,13,02,13,2.20
2013,04,13,02,14,2.20
2013,04,13,02,15,2.20
2013,04,13,02,16,2.20
2013,04,13,02,17,2.20
2013,04,13,02,18,2.20
2013,04,13,02,19,2.20
2013,04,13,02,20,2.20
2013,04,13,02,21,2.20
2013,04,13,02,22,2.20
2013,04,13,02,23,2.20
2013,04,13,02,24,2.20
2013,04,13,02,25,2.20
2013,04,13,02,26,2.20
2013,04,13,02,27,2.20
2013,04,13,02,28,2.20
2013,04,13,02,29,2.20
2013,04,13,02,30,2.20
2013,04,13,02,31,2.20
2013,04,13,02,32,2.10
2013,04,13,02,33,2.10
2013,04,13,02,34,2.10
2013,04,13,02,35,2.10
2013,04,13,02,36,2.10
2013,04,13,02,37,2.00
2013,04,13,02,38,2.00
2013,04,13,02,39,2.00
2013,04,13,02,40,2.00
2013,04,13,02,41,1.90
2013,04,13,02,42,1.90
2013,04,13,02,43,1.90
2013,04,13,02,44,1.90
2013,04,13,02,45,1.90
2013,04,13,02,46,1.80
2013,04,13,02,47,1.80
2013,04,13,02,48,1.80
2013,04,13,02,49,1.80
2013,04,13,02,50,1.70
2013,04,13,02,51,1.70
2013,04,13,02,52,1.70
2013,04,13,02,53,1.60
2013,04,13,02,54,1.60
2013,04,13,02,55,1.50
2013,04,13,02,56,1.50
2013,04,13,02,57,1.40
2013,04,13,02,58,1.40
2013,04,13,02,59,1.40
2013,04,13,03,00,1.30
2013,04,13,03,01,1.30
2013,04,13,03,02,1.30
2013,04,13,03,03,1.30
2013,04,13,03,04,1.20
2013,04,13,03,05,1.20
2013,04,13,03,06,1.20
2013,04,13,03,07,1.20
2013,04,13,03,08,1.10
2013,04,13,03,09,1.10
2013,04,13,03,10,1.10
2013,04,13,03,11,1.10
2013,04,13,03,12,1.10
2013,04,13,03,13,1.10
2013,04,13,03,14,1.10
2013,04,13,03,15,1.10
2013,04,13,03,16,1.00
2013,04,13,03,17,1.00
2013,04,13,03,18,1.00
2013,04,13,03,19,1.00
2013,04,13,03,20,1.00
2013,04,13,03,21,1.00
2013,04,13,03,22,0.90
2013,04,13,03,23,0.90
2013,04,13,03,24,0.90
2013,04,13,03,25,0.90
2013,04,13,03,26,0.90
2013,04,13,03,27,0.90
2013,04,13,03,28,0.80
2013,04,13,03,29,0.80
2013,04,13,03,30,0.80
2013,04,13,03,31,0.80
2013,04,13,03,32,0.80
2013,04,13,03,33,0.80
2013,04,13,03,34,0.80
2013,04,13,03,35,0.80
2013,04,13,03,36,0.80
2013,04,13,03,37,0.80
2013,04,13,03,38,0.80
2013,04,13,03,39,0.80
2013,04,13,03,40,0.80
2013,04,13,03,41,0.80
2013,04,13,03,42,0.80
2013,04,13,03,43,0.80
2013,04,13,03,44,0.80
2013,04,13,03,45,0.80
2013,04,13,03,46,0.80
2013,04,13,03,47,0.80
2013,04,13,03,48,0.80
2013,04,13,03,49,0.80
2013,04,13,03,50,0.90
2013,04,13,03,51,0.90
2013,04,13,03,52,0.90
2013,04,13,03,53,0.90
2013,04,13,03,54,0.90
2013,04,13,03,55,0.90
2013,04,13,03,56,0.90
2013,04,13,03,57,0.90
2013,04,13,03,58,0.90
2013,04,13,03,59,0.90
2013,04,13,04,00,0.80
2013,04,13,04,01,0.80
2013,04,13,04,02,0.80
2013,04,13,04,03,0.80
2013,04,13,04,04,0.90
2013,04,13,04,05,0.90
2013,04,13,04,06,0.80
2013,04,13,04,07,0.80
2013,04,13,04,08,0.80
2013,04,13,04,09,0.80
2013,04,13,04,10,0.80
2013,04,13,04,11,0.80
2013,04,13,04,12,0.80
2013,04,13,04,13,0.80
2013,04,13,04,14,0.80
2013,04,13,04,15,0.80
2013,04,13,04,16,0.80
2013,04,13,04,17,0.80
2013,04,13,04,18,0.80
2013,04,13,04,19,0.80
2013,04,13,04,20,0.80
2013,04,13,04,21,0.80
2013,04,13,04,22,0.80
2013,04,13,04,23,0.80
2013,04,13,04,24,0.80
2013,04,13,04,25,0.80
2013,04,13,04,26,0.80
2013,04,13,04,27,0.80
2013,04,13,04,28,0.80
2013,04,13,04,29,0.80
2013,04,13,04,30,0.90
2013,04,13,04,31,0.90
2013,04,13,04,32,0.90
2013,04,13,04,33,0.90
2013,04,13,04,34,0.90
2013,04,13,04,35,0.90
2013,04,13,04,36,0.90
2013,04,13,04,37,0.90
2013,04,13,04,38,0.90
2013,04,13,04,39,0.90
2013,04,13,04,40,0.90
2013,04,13,04,41,0.90
2013,04,13,04,42,0.90
2013,04,13,04,43,0.90
2013,04,13,04,44,0.90
2013,04,13,04,45,0.90
2013,04,13,04,46,0.90
2013,04,13,04,47,0.90
2013,04,13,04,48,0.90
2013,04,13,04,49,0.90
2013,04,13,04,50,0.90
2013,04,13,04,51,0.90
2013,04,13,04,52,0.80
2013,04,13,04,53,0.90
2013,04,13,04,54,0.80
2013,04,13,04,55,0.80
2013,04,13,04,56,0.80
2013,04,13,04,57,0.80
2013,04,13,04,58,0.80
2013,04,13,04,59,0.80
2013,04,13,05,00,0.80
2013,04,13,05,01,0.80
2013,04,13,05,02,0.80
2013,04,13,05,03,0.80
2013,04,13,05,04,0.80
2013,04,13,05,05,0.80
2013,04,13,05,06,0.80
2013,04,13,05,07,0.80
2013,04,13,05,08,0.80
2013,04,13,05,09,0.70
2013,04,13,05,10,0.70
2013,04,13,05,11,0.70
2013,04,13,05,12,0.70
2013,04,13,05,13,0.70
2013,04,13,05,14,0.70
2013,04,13,05,15,0.70
2013,04,13,05,16,0.70
2013,04,13,05,17,0.70
2013,04,13,05,18,0.80
2013,04,13,05,19,0.80
2013,04,13,05,20,0.80
2013,04,13,05,21,0.80
2013,04,13,05,22,0.80
2013,04,13,05,23,0.80
2013,04,13,05,24,0.80
2013,04,13,05,25,0.80
2013,04,13,05,26,0.80
2013,04,13,05,27,0.80
2013,04,13,05,28,0.80
2013,04,13,05,29,0.80
2013,04,13,05,30,0.80
2013,04,13,05,31,0.80
2013,04,13,05,32,0.80
2013,04,13,05,33,0.80
2013,04,13,05,34,0.80
2013,04,13,05,35,0.80
2013,04,13,05,36,0.80
2013,04,13,05,37,0.80
2013,04,13,05,38,0.80
2013,04,13,05,39,0.80
2013,04,13,05,40,0.80
2013,04,13,05,41,0.80
2013,04,13,05,42,0.80
2013,04,13,05,43,0.80
2013,04,13,05,44,0.80
2013,04,13,05,45,0.80
2013,04,13,05,46,0.80
2013,04,13,05,47,0.80
2013,04,13,05,48,0.80
2013,04,13,05,49,0.80
2013,04,13,05,50,0.80
2013,04,13,05,51,0.80
2013,04,13,05,52,0.80
2013,04,13,05,53,0.80
2013,04,13,05,54,0.80
2013,04,13,05,55,0.80
2013,04,13,05,56,0.80
2013,04,13,05,57,0.80
2013,04,13,05,58,0.80
2013,04,13,05,59,0.80
2013,04,13,06,00,0.80
2013,04,13,06,01,0.80
2013,04,13,06,02,0.80
2013,04,13,06,03,0.80
2013,04,13,06,04,0.80
2013,04,13,06,05,0.80
2013,04,13,06,06,0.80
2013,04,13,06,07,0.80
2013,04,13,06,08,0.80
2013,04,13,06,09,0.80
2013,04,13,06,10,0.80
2013,04,13,06,11,0.90
2013,04,13,06,12,0.80
2013,04,13,06,13,0.90
2013,04,13,06,14,0.90
2013,04,13,06,15,0.90
2013,04,13,06,16,0.90
2013,04,13,06,17,0.90
2013,04,13,06,18,0.90
2013,04,13,06,19,0.90
2013,04,13,06,20,0.90
2013,04,13,06,21,0.90
2013,04,13,06,22,0.90
2013,04,13,06,23,0.90
2013,04,13,06,24,0.90
2013,04,13,06,25,0.80
2013,04,13,06,26,0.80
2013,04,13,06,27,0.80
2013,04,13,06,28,0.80
2013,04,13,06,29,0.80
2013,04,13,06,30,0.80
2013,04,13,06,31,0.80
2013,04,13,06,32,0.80
2013,04,13,06,33,0.80
2013,04,13,06,34,0.80
2013,04,13,06,35,0.80
2013,04,13,06,36,0.80
2013,04,13,06,37,0.80
2013,04,13,06,38,0.80
2013,04,13,06,39,0.80
2013,04,13,06,40,0.80
2013,04,13,06,41,0.80
2013,04,13,06,42,0.80
2013,04,13,06,43,0.90
2013,04,13,06,44,0.90
2013,04,13,06,45,0.90
2013,04,13,06,46,0.90
2013,04,13,06,47,0.90
2013,04,13,06,48,0.90
2013,04,13,06,49,0.90
2013,04,13,06,50,0.90
2013,04,13,06,51,0.90
2013,04,13,06,52,0.90
2013,04,13,06,53,0.90
2013,04,13,06,54,0.90
2013,04,13,06,55,0.90
2013,04,13,06,56,0.90
2013,04,13,06,57,0.90
2013,04,13,06,58,0.90
2013,04,13,06,59,0.90
2013,04,13,07,00,0.90
2013,04,13,07,01,0.90
2013,04,13,07,02,0.90
2013,04,13,07,03,0.90
2013,04,13,07,04,0.90
2013,04,13,07,05,0.90
2013,04,13,07,06,0.90
2013,04,13,07,07,0.90
2013,04,13,07,08,0.90
2013,04,13,07,09,0.90
2013,04,13,07,10,0.90
2013,04,13,07,11,0.90
2013,04,13,07,12,0.90
2013,04,13,07,13,0.90
2013,04,13,07,14,0.90
2013,04,13,07,15,0.90
2013,04,13,07,16,0.90
2013,04,13,07,17,0.90
2013,04,13,07,18,0.90
2013,04,13,07,19,1.00
2013,04,13,07,20,1.00
2013,04,13,07,21,1.00
2013,04,13,07,22,1.00
2013,04,13,07,23,1.00
2013,04,13,07,24,1.00
2013,04,13,07,25,1.00
2013,04,13,07,26,1.00
2013,04,13,07,27,1.00
2013,04,13,07,28,1.00
2013,04,13,07,29,1.00
2013,04,13,07,30,1.00
2013,04,13,07,31,1.10
2013,04,13,07,32,1.10
2013,04,13,07,33,1.10
2013,04,13,07,34,1.10
2013,04,13,07,35,1.10
2013,04,13,07,36,1.10
2013,04,13,07,37,1.10
2013,04,13,07,38,1.10
2013,04,13,07,39,1.10
2013,04,13,07,40,1.10
2013,04,13,07,41,1.10
2013,04,13,07,42,1.10
2013,04,13,07,43,1.20
2013,04,13,07,44,1.20
2013,04,13,07,45,1.20
2013,04,13,07,46,1.20
2013,04,13,07,47,1.20
2013,04,13,07,48,1.20
2013,04,13,07,49,1.20
2013,04,13,07,50,1.20
2013,04,13,07,51,1.20
2013,04,13,07,52,1.20
2013,04,13,07,53,1.20
2013,04,13,07,54,1.20
2013,04,13,07,55,1.20
2013,04,13,07,56,1.20
2013,04,13,07,57,1.20
2013,04,13,07,58,1.20
2013,04,13,07,59,1.20
2013,04,13,08,00,1.30
2013,04,13,08,01,1.30
2013,04,13,08,02,1.30
2013,04,13,08,03,1.30
2013,04,13,08,04,1.30
2013,04,13,08,05,1.30
2013,04,13,08,06,1.30
2013,04,13,08,07,1.40
2013,04,13,08,08,1.40
2013,04,13,08,09,1.40
2013,04,13,08,10,1.40
2013,04,13,08,11,1.40
2013,04,13,08,12,1.40
2013,04,13,08,13,1.40
2013,04,13,08,14,1.40
2013,04,13,08,15,1.40
2013,04,13,08,16,1.40
2013,04,13,08,17,1.40
2013,04,13,08,18,1.30
2013,04,13,08,19,1.30
2013,04,13,08,20,1.30
2013,04,13,08,21,1.30
2013,04,13,08,22,1.30
2013,04,13,08,23,1.30
2013,04,13,08,24,1.30
2013,04,13,08,25,1.30
2013,04,13,08,26,1.40
2013,04,13,08,27,1.40
2013,04,13,08,28,1.40
2013,04,13,08,29,1.30
2013,04,13,08,30,1.30
2013,04,13,08,31,1.30
2013,04,13,08,32,1.30
2013,04,13,08,33,1.30
2013,04,13,08,34,1.30
2013,04,13,08,35,1.30
2013,04,13,08,36,1.30
2013,04,13,08,37,1.40
2013,04,13,08,38,1.40
2013,04,13,08,39,1.40
2013,04,13,08,40,1.40
2013,04,13,08,41,1.40
2013,04,13,08,42,1.40
2013,04,13,08,43,1.40
2013,04,13,08,44,1.40
2013,04,13,08,45,1.40
2013,04,13,08,46,1.40
2013,04,13,08,47,1.40
2013,04,13,08,48,1.40
2013,04,13,08,49,1.40
2013,04,13,08,50,1.40
2013,04,13,08,51,1.40
2013,04,13,08,52,1.40
2013,04,13,08,53,1.40
2013,04,13,08,54,1.50
2013,04,13,08,55,1.40
2013,04,13,08,56,1.50
2013,04,13,08,57,1.50
2013,04,13,08,58,1.50
2013,04,13,08,59,1.50
2013,04,13,09,00,1.50
2013,04,13,09,01,1.50
2013,04,13,09,02,1.50
2013,04,13,09,03,1.50
2013,04,13,09,04,1.50
2013,04,13,09,05,1.50
2013,04,13,09,06,1.50
2013,04,13,09,07,1.50
2013,04,13,09,08,1.60
2013,04,13,09,09,1.60
2013,04,13,09,10,1.70
2013,04,13,09,11,1.70
2013,04,13,09,12,1.80
2013,04,13,09,13,1.80
2013,04,13,09,14,1.80
2013,04,13,09,15,1.80
2013,04,13,09,16,1.80
2013,04,13,09,17,1.80
2013,04,13,09,18,1.80
2013,04,13,09,19,1.80
2013,04,13,09,20,1.80
2013,04,13,09,21,1.80
2013,04,13,09,22,1.90
2013,04,13,09,23,1.90
2013,04,13,09,24,1.90
2013,04,13,09,25,1.90
2013,04,13,09,26,1.90
2013,04,13,09,27,1.90
2013,04,13,09,28,2.00
2013,04,13,09,29,2.00
2013,04,13,09,30,2.00
2013,04,13,09,31,2.10
2013,04,13,09,32,2.10
2013,04,13,09,33,2.20
2013,04,13,09,34,2.20
2013,04,13,09,35,2.30
2013,04,13,09,36,2.40
2013,04,13,09,37,2.50
2013,04,13,09,38,2.50
2013,04,13,09,39,2.60
2013,04,13,09,40,2.60
2013,04,13,09,41,2.60
2013,04,13,09,42,2.50
2013,04,13,09,43,2.50
2013,04,13,09,44,2.50
2013,04,13,09,45,2.50
2013,04,13,09,46,2.50
2013,04,13,09,47,2.50
2013,04,13,09,48,2.50
2013,04,13,09,49,2.60
2013,04,13,09,50,2.60
2013,04,13,09,51,2.70
2013,04,13,09,52,2.70
2013,04,13,09,53,2.70
2013,04,13,09,54,2.80
2013,04,13,09,55,2.80
2013,04,13,09,56,2.90
2013,04,13,09,57,3.00
2013,04,13,09,58,3.00
2013,04,13,09,59,3.00
2013,04,13,10,00,3.10
2013,04,13,10,01,3.10
2013,04,13,10,02,3.10
2013,04,13,10,03,3.20
2013,04,13,10,04,3.20
2013,04,13,10,05,3.20
2013,04,13,10,06,3.20
2013,04,13,10,07,3.30
2013,04,13,10,08,3.30
2013,04,13,10,09,3.40
2013,04,13,10,10,3.40
2013,04,13,10,11,3.50
2013,04,13,10,12,3.50
2013,04,13,10,13,3.60
2013,04,13,10,14,3.70
2013,04,13,10,15,3.80
2013,04,13,10,16,3.80
2013,04,13,10,17,3.90
2013,04,13,10,18,4.00
2013,04,13,10,19,4.10
2013,04,13,10,20,4.20
2013,04,13,10,21,4.30
2013,04,13,10,22,4.40
2013,04,13,10,23,4.50
2013,04,13,10,24,4.50
2013,04,13,10,25,4.40
2013,04,13,10,26,4.30
2013,04,13,10,27,4.20
2013,04,13,10,28,4.10
2013,04,13,10,29,4.00
2013,04,13,10,30,4.00
2013,04,13,10,31,3.90
2013,04,13,10,32,3.90
2013,04,13,10,33,3.80
2013,04,13,10,34,3.90
2013,04,13,10,35,3.90
2013,04,13,10,36,3.90
2013,04,13,10,37,3.90
2013,04,13,10,38,4.00
2013,04,13,10,39,4.00
2013,04,13,10,40,4.00
2013,04,13,10,41,4.10
2013,04,13,10,42,4.10
2013,04,13,10,43,4.10
2013,04,13,10,44,4.20
2013,04,13,10,45,4.30
2013,04,13,10,46,4.30
2013,04,13,10,47,4.40
2013,04,13,10,48,4.50
2013,04,13,10,49,4.60
2013,04,13,10,50,4.70
2013,04,13,10,51,4.70
2013,04,13,10,52,4.80
2013,04,13,10,53,5.00
2013,04,13,10,54,5.10
2013,04,13,10,55,5.30
2013,04,13,10,56,5.40
2013,04,13,10,57,5.40
2013,04,13,10,58,5.50
2013,04,13,10,59,5.50
2013,04,13,11,00,5.50
2013,04,13,11,01,5.50
2013,04,13,11,02,5.60
2013,04,13,11,03,5.60
2013,04,13,11,04,5.60
2013,04,13,11,05,5.70
2013,04,13,11,06,5.70
2013,04,13,11,07,5.80
2013,04,13,11,08,5.90
2013,04,13,11,09,6.00
2013,04,13,11,10,6.00
2013,04,13,11,11,6.10
2013,04,13,11,12,6.20
2013,04,13,11,13,6.20
2013,04,13,11,14,6.30
2013,04,13,11,15,6.30
2013,04,13,11,16,6.40
2013,04,13,11,17,6.50
2013,04,13,11,18,6.60
2013,04,13,11,19,6.70
2013,04,13,11,20,6.80
2013,04,13,11,21,6.90
2013,04,13,11,22,7.00
2013,04,13,11,23,7.00
2013,04,13,11,24,7.00
2013,04,13,11,25,7.10
2013,04,13,11,26,7.20
2013,04,13,11,27,7.20
2013,04,13,11,28,7.30
2013,04,13,11,29,7.20
2013,04,13,11,30,7.20
2013,04,13,11,31,7.20
2013,04,13,11,32,7.20
2013,04,13,11,33,7.20
2013,04,13,11,34,7.20
2013,04,13,11,35,7.20
2013,04,13,11,36,7.20
2013,04,13,11,37,7.20
2013,04,13,11,38,7.20
2013,04,13,11,39,7.30
2013,04,13,11,40,7.30
2013,04,13,11,41,7.30
2013,04,13,11,42,7.40
2013,04,13,11,43,7.50
2013,04,13,11,44,7.60
2013,04,13,11,45,7.70
2013,04,13,11,46,7.70
2013,04,13,11,47,7.70
2013,04,13,11,48,7.80
2013,04,13,11,49,7.80
2013,04,13,11,50,7.80
2013,04,13,11,51,7.90
2013,04,13,11,52,7.90
2013,04,13,11,53,8.00
2013,04,13,11,54,8.00
2013,04,13,11,55,8.10
2013,04,13,11,56,8.10
2013,04,13,11,57,8.20
2013,04,13,11,58,8.20
2013,04,13,11,59,8.20
2013,04,13,12,00,8.20
2013,04,13,12,01,8.20
2013,04,13,12,02,8.20
2013,04,13,12,03,8.20
2013,04,13,12,04,8.30
2013,04,13,12,05,8.30
2013,04,13,12,06,8.30
2013,04,13,12,07,8.40
2013,04,13,12,08,8.50
2013,04,13,12,09,8.50
2013,04,13,12,10,8.50
2013,04,13,12,11,8.60
2013,04,13,12,12,8.60
2013,04,13,12,13,8.60
2013,04,13,12,14,8.60
2013,04,13,12,15,8.70
2013,04,13,12,16,8.70
2013,04,13,12,17,8.60
2013,04,13,12,18,8.60
2013,04,13,12,19,8.60
2013,04,13,12,20,8.60
2013,04,13,12,21,8.50
2013,04,13,12,22,8.40
2013,04,13,12,23,8.40
2013,04,13,12,24,8.30
2013,04,13,12,25,8.30
2013,04,13,12,26,8.20
2013,04,13,12,27,8.20
2013,04,13,12,28,8.20
2013,04,13,12,29,8.20
2013,04,13,12,30,8.20
2013,04,13,12,31,8.20
2013,04,13,12,32,8.20
2013,04,13,12,33,8.30
2013,04,13,12,34,8.30
2013,04,13,12,35,8.40
2013,04,13,12,36,8.50
2013,04,13,12,37,8.60
2013,04,13,12,38,8.70
2013,04,13,12,39,8.80
2013,04,13,12,40,9.00
2013,04,13,12,41,9.10
2013,04,13,12,42,9.20
2013,04,13,12,43,9.30
2013,04,13,12,44,9.30
2013,04,13,12,45,9.40
2013,04,13,12,46,9.40
2013,04,13,12,47,9.40
2013,04,13,12,48,9.30
2013,04,13,12,49,9.30
2013,04,13,12,50,9.30
2013,04,13,12,51,9.30
2013,04,13,12,52,9.30
2013,04,13,12,53,9.40
2013,04,13,12,54,9.40
2013,04,13,12,55,9.40
2013,04,13,12,56,9.30
2013,04,13,12,57,9.30
2013,04,13,12,58,9.40
2013,04,13,12,59,9.50
2013,04,13,13,00,9.60
2013,04,13,13,01,9.60
2013,04,13,13,02,9.70
2013,04,13,13,03,9.80
2013,04,13,13,04,9.80
2013,04,13,13,05,9.80
2013,04,13,13,06,9.80
2013,04,13,13,07,9.80
2013,04,13,13,08,9.70
2013,04,13,13,09,9.60
2013,04,13,13,10,9.50
2013,04,13,13,11,9.50
2013,04,13,13,12,9.40
2013,04,13,13,13,9.30
2013,04,13,13,14,9.30
2013,04,13,13,15,9.20
2013,04,13,13,16,9.20
2013,04,13,13,17,9.30
2013,04,13,13,18,9.30
2013,04,13,13,19,9.30
2013,04,13,13,20,9.30
2013,04,13,13,21,9.20
2013,04,13,13,22,9.20
2013,04,13,13,23,9.10
2013,04,13,13,24,9.00
2013,04,13,13,25,8.80
2013,04,13,13,26,8.70
2013,04,13,13,27,8.50
2013,04,13,13,28,8.30
2013,04,13,13,29,8.20
2013,04,13,13,30,8.00
2013,04,13,13,31,7.90
2013,04,13,13,32,7.90
2013,04,13,13,33,7.80
2013,04,13,13,34,7.90
2013,04,13,13,35,7.90
2013,04,13,13,36,8.10
2013,04,13,13,37,8.10
2013,04,13,13,38,8.30
2013,04,13,13,39,8.40
2013,04,13,13,40,8.50
2013,04,13,13,41,8.70
2013,04,13,13,42,8.80
2013,04,13,13,43,8.90
2013,04,13,13,44,9.00
2013,04,13,13,45,9.10
2013,04,13,13,46,9.10
2013,04,13,13,47,9.10
2013,04,13,13,48,9.10
2013,04,13,13,49,9.10
2013,04,13,13,50,9.00
2013,04,13,13,51,8.80
2013,04,13,13,52,8.60
2013,04,13,13,53,8.50
2013,04,13,13,54,8.40
2013,04,13,13,55,8.30
2013,04,13,13,56,8.20
2013,04,13,13,57,8.10
2013,04,13,13,58,8.00
2013,04,13,13,59,7.90
2013,04,13,14,00,7.80
2013,04,13,14,01,7.80
2013,04,13,14,02,7.80
2013,04,13,14,03,7.80
2013,04,13,14,04,7.80
2013,04,13,14,05,7.80
2013,04,13,14,06,7.90
2013,04,13,14,07,8.00
2013,04,13,14,08,8.00
2013,04,13,14,09,8.10
2013,04,13,14,10,8.20
2013,04,13,14,11,8.20
2013,04,13,14,12,8.30
2013,04,13,14,13,8.30
2013,04,13,14,14,8.20
2013,04,13,14,15,8.20
2013,04,13,14,16,8.10
2013,04,13,14,17,8.00
2013,04,13,14,18,7.90
2013,04,13,14,19,7.90
2013,04,13,14,20,7.80
2013,04,13,14,21,7.80
2013,04,13,14,22,7.80
2013,04,13,14,23,7.90
2013,04,13,14,24,8.00
2013,04,13,14,25,8.00
2013,04,13,14,26,8.10
2013,04,13,14,27,8.30
2013,04,13,14,28,8.40
2013,04,13,14,29,8.60
2013,04,13,14,30,8.80
2013,04,13,14,31,8.90
2013,04,13,14,32,9.00
2013,04,13,14,33,9.10
2013,04,13,14,34,9.30
2013,04,13,14,35,9.40
2013,04,13,14,36,9.50
2013,04,13,14,37,9.50
2013,04,13,14,38,9.50
2013,04,13,14,39,9.60
2013,04,13,14,40,9.60
2013,04,13,14,41,9.60
2013,04,13,14,42,9.60
2013,04,13,14,43,9.60
2013,04,13,14,44,9.60
2013,04,13,14,45,9.70
2013,04,13,14,46,9.70
2013,04,13,14,47,9.70
2013,04,13,14,48,9.70
2013,04,13,14,49,9.80
2013,04,13,14,50,9.80
2013,04,13,14,51,9.80
2013,04,13,14,52,9.80
2013,04,13,14,53,9.60
2013,04,13,14,54,9.40
2013,04,13,14,55,9.30
2013,04,13,14,56,9.20
2013,04,13,14,57,9.10
2013,04,13,14,58,9.00
2013,04,13,14,59,8.90
2013,04,13,15,00,8.90
2013,04,13,15,01,8.90
2013,04,13,15,02,9.00
2013,04,13,15,03,9.10
2013,04,13,15,04,9.20
2013,04,13,15,05,9.40
2013,04,13,15,06,9.60
2013,04,13,15,07,9.80
2013,04,13,15,08,10.00
2013,04,13,15,09,10.10
2013,04,13,15,10,10.30
2013,04,13,15,11,10.40
2013,04,13,15,12,10.50
2013,04,13,15,13,10.60
2013,04,13,15,14,10.50
2013,04,13,15,15,10.40
2013,04,13,15,16,10.30
2013,04,13,15,17,10.30
2013,04,13,15,18,10.30
2013,04,13,15,19,10.20
2013,04,13,15,20,10.10
2013,04,13,15,21,9.90
2013,04,13,15,22,9.80
2013,04,13,15,23,9.70
2013,04,13,15,24,9.60
2013,04,13,15,25,9.50
2013,04,13,15,26,9.40
2013,04,13,15,27,9.40
2013,04,13,15,28,9.50
2013,04,13,15,29,9.50
2013,04,13,15,30,9.60
2013,04,13,15,31,9.60
2013,04,13,15,32,9.60
2013,04,13,15,33,9.70
2013,04,13,15,34,9.70
2013,04,13,15,35,9.60
2013,04,13,15,36,9.60
2013,04,13,15,37,9.60
2013,04,13,15,38,9.60
2013,04,13,15,39,9.70
2013,04,13,15,40,9.70
2013,04,13,15,41,9.70
2013,04,13,15,42,9.80
2013,04,13,15,43,9.90
2013,04,13,15,44,10.00
2013,04,13,15,45,10.10
2013,04,13,15,46,10.30
2013,04,13,15,47,10.40
2013,04,13,15,48,10.60
2013,04,13,15,49,10.80
2013,04,13,15,50,10.80
2013,04,13,15,51,10.90
2013,04,13,15,52,11.00
2013,04,13,15,53,11.00
2013,04,13,15,54,11.10
2013,04,13,15,55,11.20
2013,04,13,15,56,11.30
2013,04,13,15,57,11.30
2013,04,13,15,58,11.40
2013,04,13,15,59,11.50
2013,04,13,16,00,11.60
2013,04,13,16,01,11.80
2013,04,13,16,02,12.00
2013,04,13,16,03,12.00
2013,04,13,16,04,12.00
2013,04,13,16,05,11.80
2013,04,13,16,06,11.70
2013,04,13,16,07,11.60
2013,04,13,16,08,11.40
2013,04,13,16,09,11.40
2013,04,13,16,10,11.50
2013,04,13,16,11,11.50
2013,04,13,16,12,11.50
2013,04,13,16,13,11.40
2013,04,13,16,14,11.40
2013,04,13,16,15,11.40
2013,04,13,16,16,11.40
2013,04,13,16,17,11.50
2013,04,13,16,18,11.40
2013,04,13,16,19,11.20
2013,04,13,16,20,11.10
2013,04,13,16,21,10.90
2013,04,13,16,22,10.80
2013,04,13,16,23,10.70
2013,04,13,16,24,10.60
2013,04,13,16,25,10.60
2013,04,13,16,26,10.60
2013,04,13,16,27,10.60
2013,04,13,16,28,10.70
2013,04,13,16,29,10.70
2013,04,13,16,30,10.60
2013,04,13,16,31,10.50
2013,04,13,16,32,10.50
2013,04,13,16,33,10.40
2013,04,13,16,34,10.50
2013,04,13,16,35,10.50
2013,04,13,16,36,10.60
2013,04,13,16,37,10.70
2013,04,13,16,38,10.70
2013,04,13,16,39,10.60
2013,04,13,16,40,10.60
2013,04,13,16,41,10.60
2013,04,13,16,42,10.60
2013,04,13,16,43,10.50
2013,04,13,16,44,10.50
2013,04,13,16,45,10.40
2013,04,13,16,46,10.30
2013,04,13,16,47,10.30
2013,04,13,16,48,10.20
2013,04,13,16,49,10.20
2013,04,13,16,50,10.20
2013,04,13,16,51,10.20
2013,04,13,16,52,10.20
2013,04,13,16,53,10.10
2013,04,13,16,54,10.10
2013,04,13,16,55,9.90
2013,04,13,16,56,9.80
2013,04,13,16,57,9.80
2013,04,13,16,58,9.70
2013,04,13,16,59,9.70
2013,04,13,17,00,9.60
2013,04,13,17,01,9.50
2013,04,13,17,02,9.50
2013,04,13,17,03,9.40
2013,04,13,17,04,9.40
2013,04,13,17,05,9.30
2013,04,13,17,06,9.20
2013,04,13,17,07,9.10
2013,04,13,17,08,9.10
2013,04,13,17,09,9.00
2013,04,13,17,10,9.00
2013,04,13,17,11,8.90
2013,04,13,17,12,8.90
2013,04,13,17,13,8.90
2013,04,13,17,14,8.90
2013,04,13,17,15,8.90
2013,04,13,17,16,8.90
2013,04,13,17,17,8.90
2013,04,13,17,18,8.90
2013,04,13,17,19,8.80
2013,04,13,17,20,8.80
2013,04,13,17,21,8.90
2013,04,13,17,22,8.90
2013,04,13,17,23,8.90
2013,04,13,17,24,8.90
2013,04,13,17,25,9.00
2013,04,13,17,26,9.10
2013,04,13,17,27,9.30
2013,04,13,17,28,9.40
2013,04,13,17,29,9.60
2013,04,13,17,30,9.80
2013,04,13,17,31,9.90
2013,04,13,17,32,10.10
2013,04,13,17,33,10.20
2013,04,13,17,34,10.30
2013,04,13,17,35,10.40
2013,04,13,17,36,10.40
2013,04,13,17,37,10.50
2013,04,13,17,38,10.50
2013,04,13,17,39,10.60
2013,04,13,17,40,10.60
2013,04,13,17,41,10.60
2013,04,13,17,42,10.50
2013,04,13,17,43,10.50
2013,04,13,17,44,10.40
2013,04,13,17,45,10.30
2013,04,13,17,46,10.30
2013,04,13,17,47,10.30
2013,04,13,17,48,10.20
2013,04,13,17,49,10.10
2013,04,13,17,50,10.10
2013,04,13,17,51,10.10
2013,04,13,17,52,10.00
2013,04,13,17,53,10.00
2013,04,13,17,54,9.90
2013,04,13,17,55,9.90
2013,04,13,17,56,9.90
2013,04,13,17,57,9.90
2013,04,13,17,58,9.90
2013,04,13,17,59,9.90
2013,04,13,18,00,9.90
2013,04,13,18,01,9.90